Weather in Vera

Spain     37°14′43″N   1°51′50″W
temp.,
°C
wind,
m/s
gust,
m/s
humid.,
%
clouds,
%
prec.,
mm/h
press.,
hPa
HPBL,
m
14 may, fri
fri1423:00+19ne127390 0.0 101367
02:00+19sse117198 0.0 101314
05:00+19w01660 0.0 101313
08:00+19ese01684 0.0 101411
11:00+21e545996 0.0 1016498
14:00+21se555936 0.0 1017516
17:00+20sse4466100 0.0 1016492
20:00+19se336889 0.0 1016310
15 may, sat
sat1523:00+19ene1170100 0.0 101851
02:00+18nnw00776 0.0 101811
05:00+17ne11758 0.0 101611
08:00+18sse007514 0.0 101719
11:00+20se226212 0.0 1017283
14:00+21se43616 0.0 1016278
17:00+21sse34614 0.0 1014285
20:00+20ese22653 0.0 1013132
16 may, sun
sun1623:00+20nne11670 0.0 101416
02:00+20ese11670 0.0 101411
05:00+19ese11650 0.0 101311
08:00+20n11640 0.0 101311
11:00+25e22410 0.0 1013347
14:00+24ese32470 0.0 1013265
17:00+24sse33463 0.0 1011262
20:00+23e11520 0.0 101087
17 may, mon
mon1723:00+21e11610 0.0 101220
02:00+20ne01710 0.0 101212
05:00+22n22515 0.0 101112
08:00+24nnw22420 0.0 101211
11:00+20e57809 0.0 1016342
14:00+20ese447876 0.0 1017460
17:00+20e457830 0.0 1016433
20:00+19e348214 0.0 1017321
18 may, tue
tue1823:00+19ene3485100 0.0 1020276
02:00+18ene2384100 0.0 1020225
05:00+19ene238040 0.0 1020244
08:00+18ne44775 0.0 1022323
11:00+19ene457111 0.0 1023681
14:00+19e5574100 0.0 1023534
17:00+19e457497 0.0 1022542
20:00+19e347491 0.0 1022517